Regional Weather Roundup
Issued by NWS

Home | Current Version | Previous Version | Graphics & Text | Print | Product List | Glossary On
Versions: 1 2 3 4 5 6 7 8 9 10 11 12 13 14 15 16 17 18 19 20 21 22 23 24 25 26 27 28 29 30 31 32 33 34 35 36 37 38 39 40 41 42 43 44 45 46 47 48 49 50
000
ASUS43 KMKX 041700
RWRWI

WISCONSIN REGIONAL WEATHER ROUNDUP
NATIONAL WEATHER SERVICE MILWAUKEE/SULLIVAN WI
1200 PM CDT WED MAY 04 2016

NOTE: "FAIR" INDICATES FEW OR NO CLOUDS BELOW 12,000 FEET WITH NO
SIGNIFICANT WEATHER AND/OR OBSTRUCTIONS TO VISIBILITY.

WIZ001-002-006>008-014>016-023>028-041800-
NORTHWEST WISCONSIN

CITY           SKY/WX    TMP DP  RH WIND       PRES   REMARKS
SUPERIOR ARPT  SUNNY     57  27  31 N12G22    29.97S
ASHLAND        SUNNY     52  34  50 NE17      29.98R
HAYWARD        SUNNY     54  19  25 NW13G22   29.95R
SIREN          SUNNY     57  29  33 N22       29.96R
CUMBERLAND     MOSUNNY   54  30  40 N20G26    29.94S
RICE LAKE      MOSUNNY   55  28  34 NW13G21   29.95R
CHETEK         MOSUNNY   55  34  43 N15G25    29.93S
LADYSMITH      SUNNY     55  28  36 N17G25    29.92S
EAU CLAIRE     NOT AVBL
MENOMONIE      SUNNY     58  32  36 N20       29.94R
NEW RICHMOND   MOSUNNY   57  31  37 NW16      29.96S
OSCEOLA        MOSUNNY   58  33  39 NW13G23   29.99S
$$

WIZ003>005-009-010-017-018-041800-
NORTH CENTRAL WISCONSIN

CITY           SKY/WX    TMP DP  RH WIND       PRES   REMARKS
MANITOWISH WTR MOSUNNY   46  32  57 N8G20     29.90R
ARBOR VITAE    MOSUNNY   49  33  54 N10G22    29.89R
WOODRUFF       MOSUNNY   49  33  54 N10G22    29.89R
RHINELANDER    PTSUNNY   46  31  55 N16G24    29.89R
EAGLE RIVER    CLOUDY    41  30  65 N13G20    29.89R
LAND O LAKES   CLOUDY    40  32  72 N16G24    29.91R WCI  32
PHILLIPS       SUNNY     50  30  45 N12G23    29.89R
TOMAHAWK       SUNNY     50  26  40 N12G20    29.88R
MEDFORD        MOSUNNY   51  31  45 N14G22    29.87R
MERRILL        SUNNY     52  30  43 N16G23    29.86S
$$

WIZ029-030-035-036-043>047-041800-
CENTRAL WISCONSIN

CITY           SKY/WX    TMP DP  RH WIND       PRES   REMARKS
WAUSAU         MOSUNNY   54  28  36 N16G23    29.84R
MOSINEE        MOSUNNY   52  27  37 N18G29    29.87R
MARSHFIELD     SUNNY     55  30  38 N15G28    29.86R
STEVENS POINT  SUNNY     51  29  41 N17G25    29.85R
WAUPACA        MOSUNNY   55  32  42 NW18      29.83S
WAUTOMA        MOSUNNY   54  32  43 N17G25    29.83S
WISC RAPIDS    MOSUNNY   57  29  34 N13G25    29.86S
CAMP DOUGLAS   NOT AVBL
$$

WIZ011>013-019>022-031-037>040-048>050-041800-
NORTHEAST WISCONSIN

CITY           SKY/WX    TMP DP  RH WIND       PRES   REMARKS
ANTIGO         CLOUDY    47  34  60 N20G28    29.85R
SHAWANO        CLOUDY    50  35  57 N17G24    29.84S
OCONTO         CLOUDY    47  35  62 N14G21    29.81S
STURGEON BAY   CLOUDY    45  34  65 N20       29.83R
GREEN BAY      CLOUDY    48  36  63 N16G22    29.82R
MANITOWOC      CLOUDY    46  34  61 N24G33    29.79R
APPLETON       PTSUNNY   46  34  61 N17       29.81R
CLINTONVILLE   CLOUDY    50  32  50 N17G25    29.83S
OSHKOSH        CLOUDY    49  35  58 N17       29.82R
$$

WIZ032>034-041-042-053>061-041800-
SOUTHWEST WISCONSIN

CITY           SKY/WX    TMP DP  RH WIND       PRES   REMARKS
LA CROSSE      MOSUNNY   59  34  39 NW20      29.90S
SPARTA         MOSUNNY   56  34  42 NW17G23   29.89S
VIROQUA        MOSUNNY   54  35  47 N18G26    29.88S
BOSCOBEL       SUNNY     61  33  35 N13G25    29.88R
PRAIRIE DU CHI SUNNY     57  30  36 NW21G30   29.89S
PLATTEVILLE    MOSUNNY   55  36  47 NW24G30   29.85S
$$

WIZ056-057-062-063-064-067-068-041800-
SOUTH CENTRAL WISCONSIN

CITY           SKY/WX    TMP DP  RH WIND       PRES   REMARKS
REEDSBURG      MOSUNNY   55  33  43 N17G29    29.84S
BARABOO/DELLS  SUNNY     55  27  34 NW16G24   29.84S
LONE ROCK      NOT AVBL
MINERAL POINT  PTSUNNY   55  32  41 NW18G30   29.84S
MADISON        PTSUNNY   53  36  52 N18G29    29.82R
MIDDLETON      PTSUNNY   55  39  56 N17G24    29.83R
WATERTOWN      CLOUDY    47  37  68 N15G21    29.81R
MONROE         PTSUNNY   54  37  54 NW14G22   29.82S
JANESVILLE     NOT AVBL
$$

WIZ051-052-058>065-066-070>072-041800-
SOUTHEAST WISCONSIN

CITY           SKY/WX    TMP DP  RH WIND       PRES   REMARKS
MILWAUKEE      PTSUNNY   48  36  63 NW16G22   29.79R
WAUKESHA       CLOUDY    45  34  65 NW15G24   29.80R
MILWAUKEE/TIMM CLOUDY    46  34  61 N12G24    29.80R
RACINE         CLOUDY    47  37  68 N15G22    29.80R
BURLINGTON     CLOUDY    45  35  69 N14G22    29.80R
KENOSHA        CLOUDY    48  35  60 N12G25    29.79R
FOND DU LAC    CLOUDY    49  36  61 N18       29.82S
SHEBOYGAN      CLOUDY    46  34  62 N17G28    29.80R
WEST BEND      CLOUDY    46  34  61 N14G21    29.80R
JUNEAU         CLOUDY    47  36  64 N18G24    29.82R
$$

LSZ147-162-041800-
LAKE SUPERIOR

STATION/POSITION TIME  TEMP    WIND        PRES    WAVE
                       AIR SEA DIR/SP/G            HT/PER
                 (UTC) (F)     (DEG/KT/KT) (MB)    (FT/S)
W MID LAKE BUOY  1550   39 37   90/  2/  2 1015.7R   2/ 4
DEVILS ISLAND    1600   40      60/ 12/ 13 1016.1R
SAXON HARBOR     1640   40      40/  9/ 12 1015.2R
$$

LMZ867-665-643>646-041800-
LAKE MICHIGAN

STATION/POSITION TIME  TEMP    WIND        PRES    WAVE
                       AIR SEA DIR/SP/G            HT/PER
                 (UTC) (F)     (DEG/KT/KT) (MB)    (FT/S)
CHAMBERS ISLAND  1600   43     340/ 17/ 22 1009.5S
N MID LAKE BUOY  1550   39 39  330/ 19/ 21 1007.6R   4/ 5
NORTHPORT PIER   1602   41     340/ 20     1009.1R
ALGOMA LAKESHORE 1615          350/ 20/ 27   N/A
KEWAUNEE LAKESHO 1600   45     360/ 11/ 22 1008.1R
SHEBOYGAN LAKESH 1600   45      10/ 24/ 26 1008.9R
PORT WASHINGTON  1640   49     360/ 11/ 18 1009.5R
S MID LAKE BUOY  1550   41 40  350/ 23/ 29 1006.3R   6/ 6
KENOSHA   LAKESH 1600   47     340/ 18/ 22 1008.1R
$$

TC  - TEMPERATURE IN CELSIUS
VSB - VISIBILITY IN STATUTE MILES
WCI - WIND CHILL INDEX
HX  - HEAT INDEX





USA.gov is the U.S. government's official web portal to all federal, state and local government web resources and services.